Location: Alphen aan den Rijn
(52.1277°N, 4.6689°E)
Time: 14:05:34
(UTC+02:00)

Envisat - Pass Details

Date: 02 March 2018
Orbit: 764 x 766 km, 98.2° (Epoch: 19 June)

Event Time Altitude Azimuth Distance (km) Brightness Sun altitude
Rises 19:21:00 0° 147° (SSE) 3,221 5.9 -9.8°
Reaches altitude 10° 19:23:20 10° 143° (SE) 2,299 5.1 -10.1°
Maximum altitude 19:28:14 52° 68° (ENE) 955 3.2 -10.9°
Drops below altitude 10° 19:33:10 10° 353° (N) 2,315 5.6 -11.6°
Sets 19:35:31 0° 349° (N) 3,246 6.5 -12.0°
